Regional Weather Roundup
Issued by NWS

Home | Current Version | Previous Version | Text Only | Print | Product List | Glossary On
Versions: 1 2 3 4 5 6 7 8 9 10 11 12 13 14 15 16 17 18 19 20 21 22 23 24 25 26 27 28 29 30 31 32 33 34 35 36 37 38 39 40 41 42 43 44 45 46 47 48 49 50
000
ASUS43 KTOP 281108
RWRKS

WEATHER ROUNDUP FOR KANSAS
NATIONAL WEATHER SERVICE GOODLAND KS
600 AM CDT THU AUG 28 2014

NOTE:  "FAIR" INDICATES FEW OR NO CLOUDS BELOW 12,000 FEET WITH NO
SIGNIFICANT WEATHER AND/OR OBSTRUCTIONS TO VISIBILITY.

KSZ001>006-013>018-027>032-041>047-281200-
NORTHWEST KANSAS

CITY           SKY/WX    TMP DP  RH WIND       PRES   REMARKS
GOODLAND       MOCLDY    57  56  96 S3        29.98F
HAYS           CLOUDY    70  63  78 E7        29.95F
HILL CITY      MOCLDY    66  64  93 E6        29.92F
RUSSELL        MOCLDY    72  66  81 W6        29.94R
$$

KSZ061>065-074>080-084>089-281200-
SOUTHWEST KANSAS

CITY           SKY/WX    TMP DP  RH WIND       PRES   REMARKS
DODGE CITY     PTCLDY    70  63  78 S7        29.94R
ELKHART          N/A     64  58  81 W9          N/A
GARDEN CITY    PTCLDY    64  62  93 S3        29.93F
GREAT BEND     MOCLDY    73  64  73 S13       29.92F
LIBERAL        PTCLDY    68  61  77 S10       29.97S
PRATT          CLOUDY    73  64  73 S15G21    29.95F
$$

KSZ066>073-081>083-090>101-281200-
SOUTHEAST KANSAS

CITY           SKY/WX    TMP DP  RH WIND       PRES   REMARKS
CHANUTE        PTCLDY    73  68  84 SE7       29.98R
COFFEYVILLE    CLEAR     73  69  87 SE6       29.97S
HUTCHINSON     CLOUDY    77  66  68 S5        29.96R
MEDICINE LODGE   N/A     74  69  85 SE8       29.94F
NEWTON         CLOUDY    79  63  57 S13       29.99S
PARSONS        CLEAR     74  68  81 S3        29.99R
WICHITA INTL   CLOUDY    78  65  63 S7        29.96R
WICHITA JABRA  CLOUDY    77  65  66 S7        29.97R
WICHITA MCCONL CLOUDY    76  67  72 SE8       29.97R
WINFIELD       PTCLDY    73  66  78 S7        29.98R
$$

KSZ007>012-019>026-033>040-048>060-102>105-281200-
NORTHEAST KANSAS

CITY           SKY/WX    TMP DP  RH WIND       PRES   REMARKS
CONCORDIA      LGT RAIN  73  70  90 S17       29.92S
EMPORIA        MOCLDY    75  68  78 S10       29.96R
LAWRENCE       CLOUDY    79  72  79 SE7       29.96S
MANHATTAN      CLOUDY    79  67  66 S6        29.93S
MARYSVILLE     TSTM      72  72 100 W8        29.97R
OLATHE IND     CLOUDY    75  71  87 SE7       29.98R
OLATHE EXE     CLOUDY    74  72  93 S6        29.97S
SALINA         LGT RAIN  76  69  79 SW7       29.95R
TOPEKA BILLARD LGT RAIN  78  71  79 SE6       29.94F
TOPEKA FORBES  CLOUDY    75  69  81 SE7       29.95S
$$



USA.gov is the U.S. government's official web portal to all federal, state and local government web resources and services.